When you browse on this site, cookies collect data to enhance your experience and personalize the content and advertising you see.
Visit our Privacy Policy to learn more. By continuing to use the site, you agree to this use of cookies and data.
  • In Hungary
  • List of Countries
  • For 7 days
  • Water Temperature
  • Satellite Maps
  • Weather Map
  • News
  • Weather Widgets
  • user-avatar
    Login

    Hourly Weather Pradocin

    Today, 24 May, Friday

    Time Temperature Precipitation Wind Pressure Humidity
    00:00 +9°C° 0 mm 2 mps 755 mmHg 79%
    01:00 +8°C° 0 mm 2 mps 755 mmHg 81%
    02:00 +8°C° 0 mm 2 mps 755 mmHg 83%
    03:00 +8°C° 0 mm 2 mps 755 mmHg 85%
    04:00 +7°C° 0 mm 2 mps 755 mmHg 87%
    05:00 +9°C° 0 mm 2 mps 755 mmHg 83%
    06:00 +12°C° 0 mm 2 mps 755 mmHg 78%
    07:00 +13°C° 0 mm 2 mps 755 mmHg 73%
    08:00 +15°C° 0 mm 2 mps 755 mmHg 67%
    09:00 +16°C° 0 mm 2 mps 755 mmHg 62%
    10:00 +18°C° 0 mm 2 mps 755 mmHg 56%
    11:00 +19°C° 0 mm 2 mps 754 mmHg 53%
    12:00 +20°C° 0 mm 2 mps 754 mmHg 49%
    13:00 +20°C° 0 mm 2 mps 754 mmHg 46%
    14:00 +20°C° 0 mm 2 mps 753 mmHg 47%
    15:00 +20°C° 0 mm 2 mps 753 mmHg 47%
    16:00 +21°C° 0 mm 2 mps 752 mmHg 47%
    17:00 +19°C° 0 mm 2 mps 752 mmHg 53%
    18:00 +18°C° 0 mm 2 mps 752 mmHg 59%
    19:00 +17°C° 0 mm 2 mps 752 mmHg 65%
    20:00 +16°C° 0 mm 2 mps 752 mmHg 67%
    21:00 +14°C° 0 mm 2 mps 752 mmHg 69%
    22:00 +12°C° 0 mm 3 mps 752 mmHg 70%
    23:00 +12°C° 0 mm 3 mps 751 mmHg 70%

    Tomorrow, 25 May, Saturday

    Time Temperature Precipitation Wind Pressure Humidity
    00:00 +12°C° 0 mm 3 mps 751 mmHg 70%
    01:00 +11°C° 0 mm 3 mps 751 mmHg 70%
    02:00 +11°C° 0 mm 3 mps 751 mmHg 73%
    03:00 +10°C° 0 mm 3 mps 751 mmHg 76%
    04:00 +10°C° 0 mm 3 mps 751 mmHg 79%
    05:00 +11°C° 0 mm 3 mps 751 mmHg 79%
    06:00 +13°C° 0 mm 3 mps 751 mmHg 79%
    07:00 +14°C° 0 mm 3 mps 752 mmHg 78%
    08:00 +15°C° 0 mm 4 mps 752 mmHg 73%
    09:00 +17°C° 0 mm 4 mps 752 mmHg 68%
    10:00 +17°C° 0 mm 5 mps 752 mmHg 63%
    11:00 +19°C° 0 mm 5 mps 752 mmHg 61%
    12:00 +19°C° 0 mm 5 mps 752 mmHg 60%
    13:00 +20°C° 0 mm 5 mps 752 mmHg 58%
    14:00 +19°C° 0 mm 5 mps 752 mmHg 57%
    15:00 +19°C° 0 mm 4 mps 752 mmHg 56%
    16:00 +19°C° 0 mm 4 mps 752 mmHg 54%
    17:00 +18°C° 0 mm 3 mps 752 mmHg 61%
    18:00 +17°C° 0 mm 3 mps 752 mmHg 67%
    19:00 +16°C° 0 mm 2 mps 752 mmHg 73%
    20:00 +14°C° 0 mm 2 mps 752 mmHg 78%
    21:00 +13°C° 0 mm 2 mps 752 mmHg 84%
    22:00 +10°C° 0 mm 2 mps 752 mmHg 89%
    23:00 +10°C° 0 mm 2 mps 752 mmHg 90%

    Day after tomorrow, 26 May, Sunday

    Time Temperature Precipitation Wind Pressure Humidity
    00:00 +9°C° 0 mm 2 mps 752 mmHg 90%
    01:00 +9°C° 0 mm 2 mps 752 mmHg 91%
    02:00 +9°C° 0 mm 2 mps 752 mmHg 90%
    03:00 +8°C° 0 mm 2 mps 752 mmHg 89%
    04:00 +8°C° 0 mm 2 mps 752 mmHg 88%
    05:00 +10°C° 0 mm 3 mps 752 mmHg 85%
    06:00 +12°C° 0 mm 4 mps 752 mmHg 81%
    07:00 +14°C° 0 mm 4 mps 752 mmHg 77%
    08:00 +14°C° 0.1 mm 5 mps 751 mmHg 74%
    09:00 +15°C° 0.1 mm 5 mps 751 mmHg 71%
    10:00 +15°C° 0.1 mm 6 mps 751 mmHg 68%
    11:00 +15°C° 0 mm 6 mps 751 mmHg 67%
    12:00 +16°C° 0 mm 6 mps 751 mmHg 65%
    13:00 +16°C° 0 mm 6 mps 751 mmHg 63%
    14:00 +16°C° 0 mm 6 mps 751 mmHg 64%
    15:00 +16°C° 0 mm 5 mps 751 mmHg 65%
    16:00 +16°C° 0 mm 5 mps 751 mmHg 66%
    17:00 +15°C° 0 mm 4 mps 751 mmHg 69%
    18:00 +16°C° 0 mm 3 mps 751 mmHg 73%
    19:00 +15°C° 0 mm 2 mps 750 mmHg 77%
    20:00 +14°C° 0 mm 2 mps 751 mmHg 81%
    21:00 +13°C° 0 mm 2 mps 751 mmHg 84%
    22:00 +12°C° 0 mm 2 mps 751 mmHg 88%
    23:00 +12°C° 0 mm 2 mps 750 mmHg 88%

    27 May, Monday

    Time Temperature Precipitation Wind Pressure Humidity
    00:00 +12°C° 0 mm 2 mps 750 mmHg 88%
    01:00 +11°C° 0 mm 3 mps 750 mmHg 88%
    02:00 +11°C° 0 mm 3 mps 750 mmHg 88%
    03:00 +11°C° 0 mm 4 mps 749 mmHg 88%
    04:00 +11°C° 0 mm 4 mps 749 mmHg 88%
    05:00 +13°C° 0 mm 5 mps 749 mmHg 82%
    06:00 +15°C° 0 mm 5 mps 748 mmHg 77%
    07:00 +17°C° 0 mm 6 mps 748 mmHg 72%
    08:00 +19°C° 0 mm 6 mps 748 mmHg 69%
    09:00 +20°C° 0 mm 6 mps 748 mmHg 66%
    10:00 +21°C° 0 mm 7 mps 748 mmHg 64%
    11:00 +21°C° 0.5 mm 7 mps 748 mmHg 67%
    12:00 +21°C° 0.5 mm 6 mps 748 mmHg 71%
    13:00 +21°C° 0.5 mm 6 mps 748 mmHg 75%
    14:00 +21°C° 0.5 mm 6 mps 748 mmHg 74%
    15:00 +21°C° 0.5 mm 5 mps 748 mmHg 74%
    16:00 +21°C° 0.5 mm 5 mps 748 mmHg 73%
    17:00 +20°C° 0.3 mm 4 mps 748 mmHg 78%
    18:00 +19°C° 0.3 mm 3 mps 748 mmHg 82%
    19:00 +18°C° 0.3 mm 2 mps 749 mmHg 86%
    20:00 +16°C° 0 mm 2 mps 749 mmHg 88%
    21:00 +15°C° 0 mm 2 mps 749 mmHg 90%
    22:00 +13°C° 0 mm 1 mps 750 mmHg 92%
    23:00 +13°C° 0 mm 1 mps 750 mmHg 93%

    28 May, Tuesday

    Time Temperature Precipitation Wind Pressure Humidity
    00:00 +12°C° 0 mm 1 mps 750 mmHg 94%
    01:00 +12°C° 0 mm 1 mps 750 mmHg 94%
    02:00 +12°C° 0 mm 1 mps 750 mmHg 95%
    03:00 +11°C° 0 mm 1 mps 750 mmHg 95%
    04:00 +11°C° 0 mm 1 mps 749 mmHg 96%
    05:00 +13°C° 0 mm 2 mps 750 mmHg 93%
    06:00 +14°C° 0 mm 2 mps 750 mmHg 90%
    07:00 +15°C° 0 mm 2 mps 750 mmHg 87%
    08:00 +16°C° 0.3 mm 2 mps 750 mmHg 86%
    09:00 +16°C° 0.3 mm 2 mps 750 mmHg 86%
    10:00 +16°C° 0.3 mm 2 mps 749 mmHg 85%
    11:00 +16°C° 0.5 mm 2 mps 749 mmHg 86%
    12:00 +16°C° 0.5 mm 2 mps 749 mmHg 87%
    13:00 +16°C° 0.5 mm 3 mps 749 mmHg 88%
    14:00 +16°C° 0.4 mm 3 mps 749 mmHg 90%
    15:00 +14°C° 0.4 mm 3 mps 749 mmHg 92%
    16:00 +14°C° 0.4 mm 3 mps 748 mmHg 94%
    17:00 +14°C° 0.1 mm 3 mps 748 mmHg 94%
    18:00 +13°C° 0.1 mm 3 mps 748 mmHg 94%
    19:00 +13°C° 0.1 mm 4 mps 748 mmHg 95%
    20:00 +13°C° 0.1 mm 4 mps 748 mmHg 95%
    21:00 +13°C° 0.1 mm 4 mps 748 mmHg 95%
    22:00 +12°C° 0.1 mm 4 mps 748 mmHg 95%
    23:00 +12°C° 0.3 mm 4 mps 748 mmHg 95%

    29 May, Wednesday

    Time Temperature Precipitation Wind Pressure Humidity
    00:00 +12°C° 0.3 mm 4 mps 748 mmHg 95%
    01:00 +12°C° 0.3 mm 4 mps 748 mmHg 95%
    02:00 +12°C° 0.1 mm 4 mps 748 mmHg 94%
    03:00 +12°C° 0.1 mm 4 mps 749 mmHg 94%
    04:00 +11°C° 0.1 mm 4 mps 749 mmHg 94%
    05:00 +12°C° 0 mm 4 mps 749 mmHg 92%
    06:00 +12°C° 0 mm 4 mps 749 mmHg 90%
    07:00 +12°C° 0 mm 4 mps 750 mmHg 88%
    08:00 +13°C° 0 mm 4 mps 750 mmHg 83%
    09:00 +14°C° 0 mm 4 mps 750 mmHg 77%
    10:00 +14°C° 0 mm 4 mps 751 mmHg 72%
    11:00 +17°C° 0 mm 3 mps 751 mmHg 65%
    12:00 +18°C° 0 mm 3 mps 751 mmHg 58%
    13:00 +20°C° 0 mm 3 mps 752 mmHg 52%
    14:00 +20°C° 0 mm 3 mps 752 mmHg 52%
    15:00 +20°C° 0 mm 2 mps 752 mmHg 53%
    16:00 +20°C° 0 mm 2 mps 752 mmHg 54%
    17:00 +18°C° 0.1 mm 2 mps 753 mmHg 63%
    18:00 +17°C° 0.1 mm 2 mps 753 mmHg 71%
    19:00 +15°C° 0.1 mm 2 mps 753 mmHg 80%
    20:00 +13°C° 1 mm 3 mps 754 mmHg 84%
    21:00 +12°C° 1 mm 3 mps 754 mmHg 89%
    22:00 +11°C° 1 mm 3 mps 755 mmHg 93%
    23:00 +11°C° 0.9 mm 3 mps 755 mmHg 92%
    Show more